Vorticity
7 9 11 13 15 18 18 17 21 19 14 16 16 10 14 10 8 8 8 7 8 7 7 8 8 9 10
11 14 15 15 18 16 16 17 15 16 17 12 10 11 7 5 7 12 13 13 13 13 12 10 10 12 13
14 16 15 18 16 16 14 13 20 11 9 11 7 7 11 12 12 15 16 15 19 22 22 17 12 11 16
15 14 14 17 15 13 13 15 12 11 8 8 9 11 13 14 15 13 13 9 10 12 13 13 14 19 13
15 16 15 14 12 14 10 7 12 9 8 11 13 15 11 17 15 12 11 11 12 10 12 17 14 9 6
14 13 13 14 11 7 8 9 9 14 13 16 14 12 14 17 14 14 11 12 13 11 10 9 10 9 8
12 13 12 11 6 8 8 10 14 13 9 9 11 13 16 15 18 16 15 14 10 8 7 5 6 7 8
13 12 10 9 9 7 10 10 13 11 10 13 12 12 18 17 18 17 15 11 9 7 9 9 9 10 10
13 10 10 9 11 10 12 9 10 9 13 11 10 15 19 14 21 18 17 9 9 8 8 7 11 14 19
12 13 12 13 13 13 9 7 10 13 13 10 10 12 24 11 18 13 14 11 10 5 8 12 12 16 17
12 13 12 13 11 9 12 10 12 13 13 8 7 8 11 10 13 16 15 13 8 2 11 13 13 17 14
11 12 12 9 11 10 11 11 14 13 8 8 6 9 10 13 16 10 8 13 12 3 13 16 16 17 11
11 11 8 9 11 11 13 13 16 11 11 11 10 11 11 12 12 9 12 9 8 5 10 18 13 13 15
10 8 8 10 13 14 12 11 11 12 11 13 12 10 11 14 13 6 10 9 8 6 10 13 14 12 14
10 9 11 12 13 14 11 11 10 10 11 17 13 11 14 16 14 8 15 15 6 7 8 14 20 12 14
11 12 12 12 12 13 11 11 12 12 11 14 10 14 21 24 17 11 11 10 7 6 9 14 18 12 11
13 12 11 12 13 11 14 14 14 13 16 12 10 10 14 21 13 6 11 10 8 13 10 12 15 15 21
Height
2978 2970 2962 2954 2948 2939 2934 2928 2923 2918 2912 2908 2903 2898 2896 2893 2890 2888 2886 2883 2882 2881 2879 2878 2877 2876 2876
2963 2955 2947 2941 2933 2926 2921 2917 2913 2908 2902 2900 2894 2891 2886 2882 2878 2876 2874 2871 2869 2868 2867 2866 2865 2865 2864
2949 2942 2936 2930 2922 2917 2911 2907 2904 2897 2893 2891 2884 2883 2879 2873 2868 2863 2860 2857 2856 2854 2853 2853 2852 2853 2852
2938 2930 2923 2919 2911 2905 2901 2897 2895 2889 2885 2883 2876 2873 2869 2863 2858 2853 2849 2847 2845 2844 2842 2841 2841 2840 2840
2927 2920 2914 2908 2902 2897 2891 2886 2888 2882 2872 2875 2865 2863 2858 2854 2849 2845 2841 2838 2835 2833 2831 2830 2829 2829 2828
2917 2910 2905 2900 2893 2888 2884 2878 2873 2877 2862 2862 2855 2852 2848 2843 2839 2835 2830 2828 2826 2823 2822 2820 2819 2818 2817
2908 2903 2896 2892 2884 2879 2877 2872 2868 2863 2852 2847 2848 2842 2838 2835 2830 2826 2822 2819 2816 2814 2812 2810 2808 2806 2805
2901 2895 2890 2886 2880 2872 2867 2861 2860 2856 2848 2835 2836 2831 2828 2827 2822 2817 2814 2811 2808 2806 2804 2801 2797 2794 2791
2896 2890 2885 2880 2874 2866 2861 2854 2850 2847 2843 2829 2826 2820 2817 2817 2814 2810 2806 2803 2800 2798 2795 2791 2787 2782 2778
2892 2886 2879 2874 2869 2862 2855 2848 2842 2836 2836 2822 2817 2812 2803 2806 2805 2801 2798 2795 2793 2790 2786 2781 2776 2770 2766
2881 2876 2872 2867 2863 2857 2851 2843 2836 2830 2827 2816 2810 2806 2799 2790 2795 2793 2789 2787 2784 2782 2778 2772 2767 2761 2755
2874 2869 2864 2861 2856 2849 2844 2837 2832 2824 2819 2813 2803 2798 2792 2786 2783 2784 2781 2778 2774 2771 2767 2762 2758 2752 2748
2868 2863 2858 2852 2847 2840 2836 2830 2825 2820 2814 2806 2799 2792 2787 2780 2774 2774 2768 2769 2767 2762 2757 2752 2745 2740 2735
2861 2856 2851 2845 2840 2833 2826 2821 2815 2814 2809 2800 2793 2786 2780 2776 2770 2766 2764 2757 2756 2753 2746 2741 2737 2731 2725
2856 2850 2844 2838 2833 2827 2820 2814 2808 2802 2799 2796 2789 2781 2775 2769 2764 2762 2756 2752 2748 2742 2736 2731 2728 2720 2714
2850 2844 2837 2831 2826 2821 2815 2808 2801 2796 2790 2785 2778 2773 2770 2767 2759 2754 2750 2744 2740 2734 2728 2719 2716 2712 2706
2845 2839 2833 2826 2820 2814 2808 2802 2796 2790 2785 2778 2772 2765 2759 2755 2757 2750 2741 2737 2731 2727 2719 2712 2705 2702 2696